Regional Weather Roundup
Issued by NWS

Home | Current Version | Previous Version | Text Only | Print | Product List | Glossary Off
Versions: 1 2 3 4 5 6 7 8 9 10 11 12 13 14 15 16 17 18 19 20 21 22 23 24 25 26 27

000
ASUS45 KSLC 151810
RWRUT

UTAH REGIONAL WEATHER ROUNDUP
NATIONAL WEATHER SERVICE SALT LAKE CITY UT
1100 AM MST SUN JAN 15 2017

UTZ001>011-023>025-151900-

NORTHERN UTAH

CITY           SKY/WX    TMP DP  RH WIND       PRES   REMARKS
BRIGHAM CITY     N/A     18  15  89 CALM      30.19F
HILL AFB       PTSUNNY   22  13  68 E14G21    30.16S WCI  10
LOGAN          MOSUNNY   10   7  87 NW7       30.21F FOG     WCI  -1
OGDEN          SUNNY     26  19  74 CALM      30.17S
SALT LAKE CITY PTSUNNY   29  23  78 CALM      30.18S
TOOELE VALLEY  CLOUDY    30  27  86 NW7       30.19S FOG     WCI  23
WENDOVER       SUNNY     27  19  74 CALM      30.19S
HEBER CITY     CLOUDY    18  18 100 N3        30.15F
WEST JORDAN    CLOUDY    28  27  96 CALM      30.17S

$$

UTZ011>015-024>027-151900-

CENTRAL/NORTHEAST UTAH

CITY           SKY/WX    TMP DP  RH WIND       PRES   REMARKS
PROVO AIRPORT  CLOUDY    29  22  75 N6        30.17S WCI  23
MOAB/CANYONLAN LGT RAIN  36  34  92 W7        30.01R WCI  30
DELTA          CLOUDY    30  27  86 N6        30.16S WCI  24
PRICE          CLOUDY    39  29  67 N8        30.00S WCI  33
RICHFIELD      CLOUDY    32  32 100 N6        30.14S FOG     WCI  26
ROOSEVELT      CLOUDY    32  23  69 CALM      30.15F
VERNAL         CLOUDY    29  23  78 CALM      30.11F

$$

UTZ013>016-019>022-027-151900-

SOUTHERN UTAH

CITY           SKY/WX    TMP DP  RH WIND       PRES   REMARKS
BRYCE CANYON   CLOUDY    28  25  88 NW7       30.03S WCI  21
CEDAR CITY     CLOUDY    29  26  89 N9        30.08S WCI  20
MILFORD        CLOUDY    30  25  81 N13       30.13S WCI  20
ST GEORGE      PTCLDY    45  30  57 S7        30.09S
HANKSVILLE     CLOUDY    37  34  87 MISG      30.06S
KANAB          PTSUNNY   43  36  75 N6        30.07R
BLANDING       CLOUDY    39  39  99 CALM      30.03F

$$

REGIONAL REPORTS     COLORADO/ARIZONA

CITY           SKY/WX    TMP DP  RH WIND       PRES   REMARKS
CRAIG, CO      CLOUDY    24  20  84 NE5       30.09F WCI  18
GRAND JUNCTION CLOUDY    42  32  67 CALM      29.98F
RIFLE, CO      CLOUDY    36  29  75 SE3       30.01F
MONTROSE, CO   CLOUDY    34  34 100 CALM      30.01F
CORTEZ, CO     LGT RAIN  42  40  92 W5        29.95F FOG
COLORADO CITY  CLOUDY    37  34  87 NW6       30.06S WCI  33
PAGE, AZ       CLOUDY    43  36  76 VRB3      30.00F
GRAND CANYON   CLOUDY    36  34  92 CALM      30.01F FOG
KINGMAN, AZ    SUNNY     47  33  58 NE8       30.04R
FLAGSTAFF, AZ  CLOUDY    33  32  96 SW6       30.02R WCI  28

$$

REGIONAL REPORTS    NEVADA/IDAHO/WYOMING

CITY           SKY/WX    TMP DP  RH WIND       PRES   REMARKS
LAS VEGAS, NV  MOSUNNY   52  28  39 N16G22    30.06R
ELY, NY        CLOUDY    25  21  85 N9        30.13S WCI  15
ELKO, NV       CLOUDY    26  21  81 CALM      30.20R
POCATELLO, ID  CLOUDY     8   4  83 SW7       30.25F WCI  -3
BURLEY, ID     LGT SNOW  11   7  84 N6        30.27R FOG     WCI   1
FORT BRIDGER,  FOG        5   3  94 CALM      30.15F VSB 3/4
EVANSTON, WY   HAZE       4  -1  80 N3        30.10S VSB 3/4
ROCK SPRINGS,  SNOW       8   4  83 W6        30.13F VSB 1/2 WCI  -2

$$




USA.gov is the U.S. government's official web portal to all federal, state and local government web resources and services.